Weather History for Doha International Airport, Qatar

Change the Weather History Date:

Friday, July 19, 2013

  Actual Average Record
Temperature  
Mean Temperature 98 °F -  
Max Temperature 107 °F 106 °F - ()
Min Temperature 90 °F 84 °F - ()
Cooling Degree Days 34    
Growing Degree Days 48 (Base 50)    
Moisture  
Dew Point 82 °F    
Average Humidity 62    
Maximum Humidity 84    
Minimum Humidity 28    
Precipitation  
Precipitation 0.00 in 0.00 in - ()
Sea Level Pressure  
Sea Level Pressure 29.35 in    
Wind  
Wind Speed 5 mph ()    
Max Wind Speed 14 mph    
Max Gust Speed -    
Visibility 4.5 miles    
Events      
T = Trace of Precipitation, MM = Missing Value Source: Averaged Metar Reports

Daily Weather History Graph

Daily Weather History Graph

Search for Another Location

Airport:

Trip Planner

Search our weather history database for the weather conditions in past years. The results will help you decide how hot, cold, wet, or windy it might be!

Date:

Astronomy

Jul. 19, 2013 Rise Set
Actual Time 4:54 AM AST 6:25 PM AST
Civil Twilight 4:29 AM AST 6:50 PM AST
Nautical Twilight 3:59 AM AST 7:20 PM AST
Astronomical Twilight 3:27 AM AST 7:51 PM AST
Moon 3:03 PM AST 1:11 AM AST
Length of Visible Light 14h 21m
Length of Day
13h 30m
Waxing Gibbous, 84% of the Moon is Illuminated
Jul 19
Waxing Gibbous
Jul 22
Full
Jul 29
Last Quarter
Aug 7
New
Aug 14
First Quarter

Hourly Weather History & Observations

Time (AST) Temp. Heat Index Dew Point Humidity Pressure Visibility Wind Dir Wind Speed Gust Speed Precip Events Conditions
12:00 AM 93.2 °F 124.9 °F 86.0 °F 79% 29.39 in 4.3 mi NE 6.9 mph - N/A   Unknown
12:30 AM 93.2 °F 124.9 °F 86.0 °F 79% 29.36 in 4.3 mi NE 4.6 mph - N/A   Unknown
1:00 AM 93.2 °F 124.9 °F 86.0 °F 79% 29.36 in 4.3 mi NE 3.5 mph - N/A   Unknown
2:00 AM 91.4 °F 122.4 °F 86.0 °F 84% 29.36 in 4.3 mi Variable 1.2 mph - N/A   Unknown
2:30 AM 91.4 °F 122.4 °F 86.0 °F 84% 29.36 in 4.3 mi Variable 2.3 mph - N/A   Unknown
3:00 AM 92 °F - 85 °F 77% 29.37 in 4 mi NE 3.5 mph - -   Haze
3:00 AM 91.4 °F 122.4 °F 86.0 °F 84% 29.36 in 4.3 mi NE 3.5 mph - N/A   Unknown
4:00 AM 91.4 °F 117.8 °F 84.2 °F 79% 29.36 in 4.3 mi East 3.5 mph - N/A   Unknown
5:00 AM 91.4 °F 122.4 °F 86.0 °F 84% 29.39 in 3.7 mi Variable 2.3 mph - N/A   Unknown
5:30 AM 91.4 °F 122.4 °F 86.0 °F 84% 29.39 in 3.7 mi SE 5.8 mph - N/A   Unknown
6:00 AM 93.2 °F 120.9 °F 84.2 °F 75% 29.39 in 4.3 mi SE 3.5 mph - N/A   Unknown
6:30 AM 95.0 °F 119.6 °F 82.4 °F 67% 29.39 in 4.3 mi Variable 2.3 mph - N/A   Unknown
7:00 AM 96.8 °F 121.7 °F 82.4 °F 63% 29.39 in 4.3 mi Variable 1.2 mph - N/A   Unknown
7:30 AM 96.8 °F 118.6 °F 80.6 °F 60% 29.39 in 4.3 mi Variable 1.2 mph - N/A   Unknown
8:00 AM 98.6 °F 124.6 °F 82.4 °F 60% 29.39 in 4.3 mi Variable 1.2 mph - N/A   Unknown
8:30 AM 100.4 °F 119.5 °F 78.8 °F 50% 29.39 in 4.3 mi Variable 3.5 mph - N/A   Unknown
9:00 AM 101 °F - 76 °F 36% 29.40 in 4 mi 2.3 mph - -   Widespread Dust
9:00 AM 102.2 °F 116.3 °F 75.2 °F 42% 29.39 in 4.3 mi Variable 2.3 mph - N/A   Unknown
9:30 AM 100.4 °F 126.1 °F 82.4 °F 56% 29.39 in 4.3 mi North 5.8 mph - N/A   Unknown
10:00 AM 104.0 °F 124.4 °F 78.8 °F 45% 29.39 in 4.3 mi East 6.9 mph - N/A   Unknown
10:30 AM 104.0 °F 124.4 °F 78.8 °F 45% 29.39 in 4.3 mi East 4.6 mph - N/A   Unknown
11:00 AM 105.8 °F 121.3 °F 75.2 °F 38% 29.39 in 5.0 mi East 9.2 mph - N/A   Unknown
11:30 AM 105.8 °F 121.3 °F 75.2 °F 38% 29.36 in 5.6 mi East 9.2 mph - N/A   Unknown
12:00 PM 105.8 °F 114.2 °F 69.8 °F 31% 29.36 in 5.6 mi East 6.9 mph - N/A   Unknown
12:30 PM 107.6 °F 115.0 °F 68.0 °F 28% 29.33 in - East 8.1 mph - N/A   Clear
1:00 PM 107.6 °F 119.1 °F 71.6 °F 32% 29.33 in - East 8.1 mph - N/A   Clear
1:30 PM 105.8 °F 119.1 °F 73.4 °F 36% 29.33 in - East 10.4 mph - N/A   Clear
2:00 PM 104.0 °F 121.0 °F 77.0 °F 42% 29.33 in - ENE 11.5 mph - N/A   Clear
3:00 PM 103 °F - 79 °F 38% 29.31 in 6 mi East 12.7 mph - -  
3:00 PM 102.2 °F 121.5 °F 78.8 °F 47% 29.30 in - East 12.7 mph - N/A   Clear
3:30 PM 102.2 °F 119.3 °F 77.0 °F 45% 29.30 in - East 12.7 mph - N/A   Clear
4:00 PM 100.4 °F 122.7 °F 80.6 °F 53% 29.30 in - ENE 12.7 mph - N/A   Clear
4:30 PM 100.4 °F 126.1 °F 82.4 °F 56% 29.30 in 4.3 mi NNE 13.8 mph - N/A   Unknown
5:00 PM 98.6 °F 124.6 °F 82.4 °F 60% 29.30 in 4.3 mi NNE 13.8 mph - N/A   Unknown
5:30 PM 98.6 °F 128.0 °F 84.2 °F 63% 29.33 in 5.0 mi NNE 11.5 mph - N/A   Unknown
6:00 PM 96.8 °F 126.0 °F 84.2 °F 67% 29.33 in 4.3 mi NNE 11.5 mph - N/A   Unknown
6:30 PM 96.8 °F 130.7 °F 86.0 °F 71% 29.33 in 3.7 mi NE 9.2 mph - N/A   Unknown
7:00 PM 95.0 °F 128.0 °F 86.0 °F 75% 29.33 in 4.3 mi ENE 5.8 mph - N/A   Unknown
8:00 PM 95.0 °F 133.8 °F 87.8 °F 80% 29.33 in 4.3 mi NNE 6.9 mph - N/A   Unknown
8:30 PM 95.0 °F 133.8 °F 87.8 °F 80% 29.36 in 4.3 mi NNE 8.1 mph - N/A   Unknown
9:00 PM 94 °F - 87 °F 75% 29.36 in 5 mi NNE 6.9 mph - -   Haze
9:00 PM 93.2 °F 130.3 °F 87.8 °F 84% 29.36 in 5.0 mi NNE 6.9 mph - N/A   Unknown
9:30 PM 93.2 °F 124.9 °F 86.0 °F 79% 29.36 in 5.0 mi NNE 5.8 mph - N/A   Unknown
10:00 PM 93.2 °F 124.9 °F 86.0 °F 79% 29.36 in 5.0 mi NNE 5.8 mph - N/A   Unknown
10:30 PM 93.2 °F 120.9 °F 84.2 °F 75% 29.33 in 5.0 mi NNE 3.5 mph - N/A   Unknown
11:00 PM 93.2 °F 120.9 °F 84.2 °F 75% 29.33 in 5.0 mi North 3.5 mph - N/A   Unknown
11:30 PM 93.2 °F 120.9 °F 84.2 °F 75% 29.33 in 5.0 mi North 3.5 mph - N/A   Unknown